सभी
West Wyalong Airport (West Wyalong, New South Wales) WWY मौसम
|
West Wyalong, New South Wales (WWY / YWWL)
स्वच्छ आकाश
हल्की हवाएं |
|
20 °C |
There is no TAF data available at WWY or any nearby airports.
Recent WWY METAR history
| Date | Time (AEST) | Flight Rules | Wind Dir. | Speed | Type | Height AGL (ft) | Visibility | Temp (°C) | Temp (°F) | Dew Point (°C) | Dew Point (°F) | Rel. Humid. | Pressure | Density Altitude | Remarks |
|---|---|---|---|---|---|---|---|---|---|---|---|---|---|---|---|
| 04-मई | 16:00 | n/a | 290° | 6 kt | Missing | 20° | 68° | 8° | 46° | 46% | 1015 mb | 1,406 ft | |||
| 04-मई | 15:00 | n/a | 330° | 7 kt | Missing | 20° | 68° | 8° | 46° | 46% | 1015 mb | 1,406 ft | |||
| 04-मई | 14:00 | n/a | 310° | 7 kt | Missing | 20° | 68° | 9° | 48° | 49% | 1015 mb | 1,406 ft | |||
| 04-मई | 13:00 | n/a | 290° | 5 kt | Missing | 19° | 66° | 10° | 50° | 56% | 1015 mb | 1,286 ft | |||
| 04-मई | 12:00 | n/a | 300° | 6 kt | Missing | 18° | 64° | 11° | 51° | 64% | 1016 mb | 1,137 ft | |||
| 04-मई | 11:00 | n/a | 290° | 4 kt | Missing | 16° | 60° | 12° | 53° | 77% | 1017 mb | 867 ft | |||
| 04-मई | 10:00 | n/a | 320° | 3 kt | Missing | 15° | 59° | 13° | 55° | 88% | 1017 mb | 747 ft | |||
| 04-मई | 09:00 | n/a | Calm | Missing | 13° | 55° | 12° | 53° | 94% | 1017 mb | 507 ft | ||||
| 04-मई | 08:00 | n/a | 310° | 3 kt | Missing | 13° | 55° | 12° | 53° | 94% | 1017 mb | 507 ft | |||
| 04-मई | 07:00 | n/a | 260° | 6 kt | Missing | 13° | 55° | 12° | 53° | 94% | 1016 mb | 537 ft | |||
| 04-मई | 06:00 | n/a | 230° | 4 kt | Missing | 13° | 55° | 12° | 53° | 94% | 1015 mb | 566 ft | |||
| 04-मई | 05:00 | n/a | 240° | 6 kt | Missing | 13° | 55° | 12° | 53° | 94% | 1015 mb | 566 ft | |||
| 04-मई | 04:00 | n/a | 250° | 7 kt | Missing | 13° | 55° | 12° | 53° | 94% | 1015 mb | 566 ft | |||
| 04-मई | 03:00 | n/a | 360° | 7 kt | Missing | 17° | 62° | 16° | 60° | 94% | 1015 mb | 1,046 ft | |||
| 04-मई | 02:00 | n/a | 360° | 6 kt | Missing | 17° | 62° | 16° | 60° | 94% | 1016 mb | 1,017 ft | |||
| 04-मई | 01:00 | n/a | 360° | 7 kt | Missing | 17° | 62° | 16° | 60° | 94% | 1016 mb | 1,017 ft | |||
| 04-मई | 00:00 | n/a | 10° | 9 kt | Missing | 17° | 62° | 17° | 62° | 100% | 1016 mb | 1,017 ft | |||
| 03-मई | 23:00 | n/a | 10° | 7 kt | Missing | 17° | 62° | 17° | 62° | 100% | 1017 mb | 987 ft | |||
| 03-मई | 22:00 | n/a | 360° | 7 kt | Missing | 17° | 62° | 16° | 60° | 94% | 1018 mb | 957 ft | |||
| 03-मई | 21:00 | n/a | 360° | 6 kt | Missing | 17° | 62° | 16° | 60° | 94% | 1017 mb | 987 ft | |||
| 03-मई | 20:00 | n/a | 360° | 6 kt | Missing | 18° | 64° | 16° | 60° | 88% | 1017 mb | 1,107 ft | |||
| 03-मई | 19:00 | n/a | 360° | 6 kt | Missing | 19° | 66° | 15° | 59° | 78% | 1016 mb | 1,257 ft | |||
| 03-मई | 18:00 | n/a | 360° | 3 kt | Missing | 19° | 66° | 16° | 60° | 83% | 1016 mb | 1,257 ft | |||
| 03-मई | 17:00 | n/a | 20° | 6 kt | Missing | 20° | 68° | 16° | 60° | 78% | 1016 mb | 1,377 ft |
लॉगिन
| Your browser is unsupported. अपना ब्राऊजर अपग्रेड करें |
